Regional Weather Roundup
Issued by NWS Lake Charles, LA

Current Version | Previous Version | Text Only | Print | Product List | Glossary On
Versions: 1 2 3 4 5 6 7 8 9 10 11 12 13 14 15 16 17 18 19 20 21 22 23 24 25 26 27 28 29 30 31 32 33 34 35 36 37 38 39 40 41 42 43 44 45 46 47 48 49 50
952
ASUS44 KLCH 082310
RWRLCH
REGIONAL WEATHER ROUNDUP
NATIONAL WEATHER SERVICE LAKE CHARLES LA
500 PM CST MON FEB 08 2016

Note: "fair" indicates few or no clouds below 12,000 feet with no
significant weather and/or obstructions to visibility.


ACROSS SOUTHEAST TEXAS

CITY           SKY/WX    TMP DP  RH WIND       PRES   REMARKS
BEAUMONT       SUNNY     59  14  17 NW20G28   30.16R
BEAUMONT CITY  FAIR      59  10  14 NW22G29   30.18R
ORANGE         CLEAR     58  -3   8 NW13G26   30.17R
JASPER         SUNNY     55  10  16 NW14G21   30.19S
$$

ACROSS CENTRAL LOUISIANA

CITY           SKY/WX    TMP DP  RH WIND       PRES   REMARKS
LEESVILLE      CLEAR     54   8  15 NW26G36   30.12
FULLERTON      FAIR      54  10  17 NW10G18   30.09S
ALEXANDRIA INT CLEAR     54  10  17 NW25G36   30.09R
ESLER FIELD    CLEAR     56   9  15 NW14G24   30.08S
DERIDDER         N/A     55   5  13 NW15G31   30.15S
OAKDALE          N/A     56  10  16 NW14G25   30.11S
OPELOUSAS      FAIR      55  15  20 NW17G28   30.10R
$$

ACROSS SOUTHWEST AND SOUTH CENTRAL LOUISIANA

CITY           SKY/WX    TMP DP  RH WIND       PRES   REMARKS
SULPHUR        CLEAR     59  15  17 MISG      30.14S
LAKE CHARLES   SUNNY     58  10  15 NW22G31   30.12F
CHENNAULT INT  SUNNY     57  14  18 NW22G28   30.12S
CAMERON PHI    CLEAR     59  16  18 NW17G29   30.16S
DEQUINCY       FAIR      56  13  18 NW18G24   30.14S
JENNINGS       FAIR      55  18  22 NW20G29   30.11F
LAFAYETTE      CLEAR     57  15  19 NW21G31   30.09S
NEW IBERIA     CLEAR     56  15  20 NW23G38   30.09R
ABBEVILLE      FAIR      56  17  21 NW16      30.10S
PATTERSON      CLEAR     57  12  17 NW26G35   30.06R
SALT POINT       N/A     57  31  37 W15G24    30.07R
$$

SELECTED SITES ACROSS THE REGION

CITY           SKY/WX    TMP DP  RH WIND       PRES   REMARKS
HOUSTON BUSH   MOSUNNY   61  14  16 NW24G33   30.22R
HOUSTON HOBBY  MOSUNNY   62   5  10 NW30G41   30.21R
GALVESTON      SUNNY     61  23  23 NW25G32   30.20S
COLLEGE STAT   SUNNY     60  10  14 NW22G30   30.25S
CONROE         SUNNY     58   8  13 N20G37    30.22S
HUNTSVILLE     SUNNY     58  11  15 NW17G32   30.22S
LUFKIN         SUNNY     55  11  17 NW21G30   30.19S
SHREVEPORT     PTCLDY    54   8  16 NW21G29   30.12S
MONROE         MOCLDY    52  17  25 NW20G32   30.05S
NATCHEZ MS     PTCLDY    52  16  24 NW21G29   30.05S
BATON ROUGE    CLEAR     55  12  18 NW17G35   30.06R
N.O. INTL ARPT PTCLDY    57  13  17 NW24G39   30.03R
SLIDELL        CLEAR     56  15  20 NW10G32   30.00R
$$

MARINE REPORTS

STATION/POSITION TIME  SKY/WX   TEMP    WIND        PRES    VSBY
                                AIR SEA DIR/SP/G
                 (UTC)          (F)     (DEG/KT/KT) (MB)    (MI)
BUOY 30 S HIGH I 2250            60 59  300/ 17/ 23 1021.9S
WVE H/P(F/S)=  3/ 4

SEA RIM ST PARK  2300            58     330/ 18/ 24 1022.0R
PORT ARTHUR      2200               56  300/ 20/ 26 1020.7F
SABINE PASS N    2200            60 56  310/ 14/ 23 1022.5F
TEXAS POINT      NOT AVBL
CALCASIEU PASS   2200            59 55  330/ 20/ 25 1019.4F
LK CHARLES BEACH 2200            58 55              1020.5F
MARSH ISLAND     NOT AVBL
FRESH WATER LOCK 2200            58 54  290/ 22/ 31 1019.0F
AMERADA PASS     2200            57 53  280/ 20/ 26 1017.9F
$$




USA.gov is the U.S. government's official web portal to all federal, state and local government web resources and services.